Location: Austin
(30.3000°N, 97.7500°W)
Time: 06:07:56
(UTC-05:00)

ATLAS 3B R/B - Pass Details

Date: 16 June 2025
Orbit: 935 x 1258 km, 63.8° (Epoch: 07 July)

Event Time Altitude Azimuth Distance (km) Brightness Sun altitude
Rises 02:19:01 0° 339° (NNW) 4,208 6.5 -35.2°
Reaches altitude 10° 02:22:08 10° 347° (NNW) 3,225 5.8 -35.0°
Maximum altitude 02:29:16 38° 53° (NE) 1,777 4.1 -34.6°
Enters shadow 02:33:28 22° 106° (ESE) 2,345 4.4 -34.3°
